Theta_e
316 316 315 315 315 314 315 315 314 314 313 313 313 314 314 315 316 317 318 319 320 320 320 320 321 321 321 322 322 322 322 322 322 321 321 321 321 322 321 322 323 322
316 316 315 315 315 315 315 315 315 314 314 314 314 314 315 315 316 318 318 319 320 320 321 322 322 322 322 322 322 322 322 322 322 322 321 321 323 323 322 323 323 322
317 316 316 315 315 315 315 316 316 316 315 315 315 315 315 315 317 318 319 319 319 320 321 322 322 322 322 321 321 321 320 320 321 321 320 322 325 323 322 322 321 321
317 317 316 316 315 315 316 316 316 316 316 316 315 315 316 316 317 318 318 318 318 319 320 321 321 321 321 320 320 321 320 321 323 321 319 321 322 321 320 321 321 320
317 317 317 316 316 316 316 316 316 317 317 316 316 316 316 317 317 317 317 316 317 318 318 319 319 320 321 320 320 320 319 321 323 321 320 322 323 323 322 321 321 319
317 317 317 316 316 316 316 317 317 317 317 316 316 317 317 317 317 316 316 315 316 316 315 316 317 318 320 320 320 320 318 318 321 322 321 322 322 323 324 324 322 319
318 318 317 316 316 316 316 317 317 317 317 316 316 316 316 316 316 315 315 315 314 314 313 314 315 316 318 318 318 318 317 316 320 323 323 321 319 319 321 322 319 318
319 318 317 316 316 316 317 317 317 317 317 316 316 316 316 316 315 314 313 313 312 311 311 312 313 313 314 315 315 315 315 315 317 318 319 321 320 317 317 319 319 319
318 318 317 317 317 317 317 317 317 317 317 317 316 316 315 315 314 313 312 311 310 310 310 310 310 310 311 312 312 312 312 313 312 312 314 319 322 317 316 319 320 320
317 317 317 317 317 317 317 317 317 317 317 317 316 316 315 314 312 311 310 310 309 310 310 310 310 310 310 310 311 310 310 310 310 309 311 315 316 314 315 318 318 317
315 315 315 316 316 317 317 317 317 317 316 316 316 315 314 312 310 310 310 310 310 310 310 310 310 310 309 309 310 309 310 310 308 309 313 316 314 311 314 316 316 316
314 313 313 314 314 315 315 316 316 316 315 315 314 312 311 310 310 310 310 310 310 310 310 310 310 310 310 310 310 310 311 310 308 308 314 317 316 313 314 316 317 318
313 313 313 313 313 313 313 313 313 313 313 312 311 311 310 310 310 310 310 310 310 310 309 310 310 310 310 310 309 310 310 310 310 312 313 313 314 314 316 318 319 318
312 312 312 311 311 311 311 311 312 312 311 311 310 310 310 310 310 310 310 310 309 310 310 309 310 309 310 310 309 310 309 309 313 316 315 313 312 312 314 316 316 315
311 311 311 311 311 311 310 310 310 311 311 311 310 310 310 310 310 310 310 310 310 310 310 310 310 309 309 310 309 310 310 310 311 313 313 312 311 310 310 310 311 311
310 310 310 310 310 311 310 310 310 310 311 311 310 311 310 310 310 309 309 310 309 310 310 310 310 310 309 310 309 309 309 310 310 310 310 310 309 309 309 309 310 309
311 310 311 311 310 311 310 310 310 310 310 311 310 310 310 310 310 310 310 309 310 310 310 310 310 310 310 309 310 310 309 309 310 310 310 309 309 309 309 310 310 308
311 310 311 311 311 311 310 310 310 310 310 311 310 310 310 309 309 309 309 310 310 310 310 310 310 310 310 310 310 309 309 309 309 309 310 310 310 310 309 309 308 307
311 311 310 311 310 310 310 310 310 310 310 310 309 310 309 310 310 310 309 310 310 310 310 310 310 310 310 310 310 310 309 309 309 310 310 310 310 310 309 309 308 307
311 310 310 310 310 310 310 310 310 310 310 310 310 310 309 310 310 310 310 310 310 310 310 310 310 311 310 310 310 310 309 309 309 310 310 310 310 309 309 309 308 308
310 311 310 310 310 310 310 310 310 310 310 310 310 310 310 310 310 310 310 310 310 310 310 311 311 310 310 310 310 309 309 309 309 310 310 310 309 309 309 309 309 309
310 310 310 310 310 310 310 311 311 310 310 310 310 310 310 310 310 310 310 310 310 310 310 310 311 310 310 310 309 309 309 309 309 310 309 309 309 309 309 309 309 309
310 310 310 310 310 310 311 311 311 311 311 311 310 311 310 310 310 310 310 310 310 310 311 310 310 310 310 309 309 309 309 309 309 309 309 309 308 308 308 308 308 308
310 310 310 310 311 311 311 311 311 311 311 311 311 311 311 311 310 310 310 310 309 310 310 310 310 310 310 309 309 309 309 309 309 309 309 309 309 308 308 307 307 307
310 309 310 310 310 311 311 311 311 311 311 311 311 312 311 310 310 310 310 309 309 309 310 310 310 309 309 309 309 309 309 309 309 309 309 309 308 308 308 307 307 307
310 309 309 310 310 310 311 311 311 311 311 311 311 311 311 311 310 310 310 309 309 309 309 310 310 309 309 309 309 309 309 309 309 309 309 308 308 308 307 307 307 306
Wind_Speed
30 30 31 31 30 29 29 29 29 29 28 27 26 25 25 23 22 22 22 22 23 24 25 26 27 28 28 28 27 27 27 27 27 26 25 23 22 21 21 20 21 22
29 29 29 29 29 28 29 29 29 28 27 26 26 25 25 24 24 23 22 22 23 24 25 26 27 28 28 28 27 26 26 26 25 23 22 22 22 22 22 22 22 22
29 29 29 28 27 27 28 28 27 26 26 26 26 26 26 25 24 24 23 23 24 25 25 26 27 28 28 28 27 27 27 26 25 24 23 22 24 24 22 23 23 23
30 30 29 28 28 27 28 27 26 25 25 26 26 26 26 25 25 24 24 25 26 27 27 26 27 27 27 27 27 27 26 24 24 25 24 23 23 23 22 23 23 22
31 31 30 30 29 29 30 29 27 25 25 25 25 26 26 26 25 25 25 27 27 28 27 27 27 27 26 27 26 27 26 24 24 24 24 24 23 23 23 23 22 21
32 32 32 32 32 31 32 30 27 26 25 25 26 26 27 26 26 26 27 28 28 27 27 27 27 26 25 25 25 26 26 25 23 23 24 26 26 26 25 23 22 23
33 33 33 34 33 33 33 31 29 28 26 26 27 27 27 27 27 28 28 29 27 27 27 27 27 26 26 26 25 26 26 24 23 25 27 26 26 28 26 23 23 24
34 34 34 34 34 34 33 32 31 29 29 29 29 29 28 28 28 29 29 28 27 27 27 27 27 26 25 25 25 26 25 25 25 27 27 25 26 27 25 24 25 26
33 33 33 33 34 34 34 34 33 31 31 32 31 30 29 29 30 29 28 27 27 27 28 27 25 24 23 24 24 24 24 25 25 25 26 27 29 28 25 24 25 25
31 31 31 32 33 35 35 35 34 34 33 33 32 31 30 30 30 28 27 27 28 28 27 25 23 22 22 22 23 23 23 24 24 24 24 26 28 27 25 24 24 24
27 27 28 29 31 32 33 33 34 33 33 32 31 31 30 29 28 28 28 28 28 27 25 23 22 21 21 21 21 22 21 22 23 22 22 23 23 23 23 24 25 25
25 26 26 27 27 28 28 29 30 30 31 30 30 30 29 28 28 27 28 28 27 25 23 21 21 21 21 21 21 21 21 22 22 22 22 23 23 23 23 25 26 26
26 27 27 26 26 26 27 28 28 28 28 28 28 28 28 27 27 27 27 26 25 23 22 21 21 21 21 21 21 21 22 23 21 20 21 23 24 24 25 26 27 28
27 28 28 28 27 28 28 29 29 28 27 27 28 28 27 27 27 26 26 25 24 22 22 21 21 22 21 21 21 21 22 21 21 21 24 25 26 27 28 29 30 31
26 27 27 27 28 28 29 29 29 29 29 29 29 28 27 27 26 26 25 24 23 22 22 22 22 22 21 22 22 22 21 22 23 25 27 28 28 28 29 29 29 29
25 26 26 27 28 28 29 29 29 29 29 29 28 27 27 26 25 25 25 24 23 23 22 23 22 22 22 22 22 22 23 24 25 26 27 28 27 26 26 25 25 25
25 26 27 27 28 28 27 26 26 27 28 28 27 26 26 26 25 25 25 25 24 23 23 23 23 23 23 23 24 24 25 25 25 26 26 25 24 23 23 24 24 24
25 26 26 26 26 25 24 22 23 24 25 25 25 25 26 26 26 26 25 25 25 24 24 24 24 24 24 25 25 25 26 26 26 26 25 24 23 23 23 24 23 22
25 25 25 25 24 22 21 21 22 23 23 24 24 25 26 26 26 26 27 27 27 26 25 25 25 25 25 25 26 26 26 26 26 26 25 24 24 24 24 23 22 22
24 25 25 24 22 21 21 21 22 22 23 24 25 25 26 27 27 28 28 28 28 27 26 26 26 26 26 26 26 26 26 26 26 25 25 25 25 25 24 23 22 22
24 25 25 24 22 22 22 23 23 24 24 25 25 26 26 27 28 29 29 29 29 28 28 27 27 26 26 26 26 26 26 26 26 25 25 25 25 24 24 23 22 21
24 26 27 25 25 25 25 25 25 25 24 25 25 26 27 28 29 30 31 30 30 29 29 28 27 27 27 26 26 27 27 27 26 26 26 26 25 25 25 24 22 21
26 28 29 28 27 27 27 26 26 25 25 25 25 26 27 28 29 30 31 31 31 31 30 29 28 28 27 26 27 27 27 27 27 27 27 26 26 26 25 23 21 20
27 30 31 31 30 30 29 28 27 26 26 25 25 26 27 28 29 31 31 32 32 32 31 31 30 28 27 27 27 28 28 28 27 28 28 27 27 26 24 22 21 20
29 32 34 34 33 32 31 30 29 28 28 27 27 27 28 29 30 31 31 32 33 33 33 33 31 29 28 28 28 29 29 29 28 29 29 29 28 26 24 22 21 20
29 34 37 37 36 35 34 34 33 32 31 30 29 29 30 30 31 31 32 32 33 34 35 34 33 31 29 29 30 30 30 30 30 30 30 29 28 26 24 23 21 20
Wind_Direction
252 252 254 255 256 257 257 257 256 256 256 256 257 258 260 263 265 265 264 263 263 262 262 262 262 263 262 262 262 262 262 261 260 260 257 256 260 261 262 264 264 267
251 252 253 254 254 254 254 255 256 257 257 258 259 260 262 264 265 266 266 265 263 261 260 259 259 260 260 259 259 258 258 259 261 261 260 261 262 260 261 264 263 265
251 253 254 254 254 254 254 256 257 258 258 258 258 259 261 264 266 267 267 265 264 263 260 258 257 257 257 258 259 258 257 259 259 257 257 262 263 260 261 264 262 262
251 254 255 255 255 254 256 257 257 258 257 257 258 259 262 263 265 266 266 266 266 264 262 259 259 259 257 257 255 255 257 260 261 259 259 259 258 257 256 258 260 260
251 253 254 254 254 254 255 255 256 256 256 257 258 259 261 262 264 265 266 267 265 264 263 262 261 260 257 255 253 254 255 252 252 257 259 257 256 257 256 254 256 257
249 251 252 253 253 254 255 255 255 255 256 257 257 259 261 262 263 265 266 266 264 264 265 264 262 258 255 254 254 256 256 250 250 257 258 254 252 253 253 252 252 255
248 250 251 252 253 254 255 255 255 255 256 257 257 259 260 262 263 265 265 265 264 265 264 262 260 257 254 253 252 253 253 248 247 251 254 255 253 250 248 247 249 252
249 249 250 251 252 253 254 254 254 254 256 257 259 260 261 262 263 264 263 262 263 264 263 260 259 258 254 253 253 252 251 248 245 244 246 251 255 251 243 240 246 250
248 249 250 251 252 253 253 254 254 254 255 257 259 260 260 260 261 260 259 260 262 262 261 259 258 256 252 250 251 253 253 253 250 245 242 244 250 249 241 239 247 249
250 252 253 253 254 254 254 254 253 253 254 255 256 257 257 257 257 257 258 260 260 259 258 257 254 252 250 249 251 255 256 257 255 250 245 246 247 246 240 239 243 245
252 253 254 254 254 254 254 253 251 251 251 251 252 253 253 254 254 256 257 258 258 257 255 253 251 249 250 250 253 255 255 256 256 251 248 250 248 242 239 242 244 247
253 252 253 253 254 253 253 251 249 248 247 247 248 249 250 251 253 255 256 255 254 252 249 247 246 248 249 250 254 256 255 257 255 247 242 245 248 246 246 250 252 254
254 254 254 254 254 253 251 249 247 245 245 244 245 246 248 251 252 253 253 251 248 245 244 243 244 247 250 251 253 254 254 256 256 252 247 245 245 247 249 250 252 253
256 255 256 256 255 253 251 248 245 243 242 242 242 245 248 250 250 250 247 245 242 240 240 242 243 245 249 252 253 253 253 253 252 251 253 251 249 248 249 251 253 254
259 257 256 256 255 254 252 249 245 241 239 240 242 244 247 247 246 244 241 239 238 238 238 241 243 245 248 251 254 255 256 256 252 249 251 255 256 255 255 257 259 260
261 258 257 256 256 254 252 248 243 239 237 238 240 243 243 243 241 238 237 237 237 237 239 241 244 247 250 253 255 257 258 258 257 256 257 258 260 259 259 261 264 266
262 259 257 256 255 253 250 244 239 235 233 235 238 239 239 238 236 235 236 236 237 238 240 242 246 249 251 253 255 256 257 258 259 260 260 261 261 261 262 264 266 268
263 260 257 254 251 248 244 238 232 230 231 233 234 235 235 234 234 235 236 237 238 239 241 244 247 249 251 253 255 256 257 257 258 260 261 262 263 264 265 266 265 262
263 259 255 250 245 240 236 231 230 229 229 231 231 231 233 233 235 237 238 239 240 240 242 245 248 250 251 253 255 256 257 257 258 259 262 263 264 264 264 263 258 252
260 256 251 245 237 232 229 227 226 227 227 228 230 231 233 235 238 241 242 242 243 243 245 247 249 251 253 255 257 257 257 257 257 259 261 262 261 259 257 254 249 245
254 249 243 237 229 225 223 222 223 225 227 230 233 235 238 240 242 245 246 245 245 245 247 249 250 252 253 256 257 257 256 255 256 257 258 257 255 252 249 246 244 243
248 242 236 230 224 222 222 223 225 228 231 235 238 240 243 245 247 249 249 248 247 247 248 250 251 253 255 256 256 255 254 254 254 255 254 251 249 246 244 242 242 242
245 237 232 227 224 224 225 227 229 232 236 239 242 246 249 250 252 253 253 252 250 249 251 252 252 254 256 256 255 253 252 252 253 252 250 248 245 243 241 241 240 240
249 236 231 230 228 228 229 230 233 236 238 241 246 250 253 254 255 256 256 255 253 252 252 252 253 255 256 256 255 253 251 251 251 250 247 245 242 240 239 238 237 238
255 240 234 233 232 232 233 234 236 237 238 241 246 250 253 255 255 256 257 257 255 254 253 252 253 254 255 256 254 252 250 249 248 247 246 243 240 239 237 235 233 233
260 246 239 236 236 235 236 237 238 238 239 242 246 250 252 254 256 257 257 257 256 254 253 253 254 254 255 255 254 251 250 248 247 246 244 241 239 238 236 234 231 228